Date,TemperatureHighF,TemperatureAvgF,TemperatureLowF,DewpointHighF,DewpointAvgF,DewpointLowF,HumidityHigh,HumidityAvg,HumidityLow,PressureMaxIn,PressureMinIn,WindSpeedMaxMPH,WindSpeedAvgMPH,GustSpeedMaxMPH,PrecipitationSumIn
2013-1-1,23,21,18,16,14,11,76,74,69,29.36,29.23,17,4,17,0.00
2013-1-2,26,24,20,19,16,13,75,74,71,29.31,29.21,12,3,12,0.00
2013-1-3,29,27,23,22,19,16,75,74,73,29.30,29.17,30,5,30,0.00
2013-1-4,34,28,26,26,21,19,75,74,71,29.35,29.06,28,9,28,0.00
2013-1-5,37,31,25,27,23,18,75,72,66,29.44,29.09,12,3,12,0.03
2013-1-6,35,31,27,28,24,20,76,75,73,29.49,29.05,14,3,14,0.00
2013-1-7,40,33,26,29,24,19,76,70,59,29.49,29.15,34,9,34,0.00
2013-1-8,44,36,32,33,28,25,78,74,62,29.39,29.20,14,3,15,0.00
2013-1-9,39,37,33,32,28,24,77,70,63,29.65,29.04,28,8,28,0.00
2013-1-10,43,34,23,29,24,18,79,68,51,29.79,29.36,11,3,11,0.00
2013-1-11,42,38,35,31,28,26,77,68,63,29.36,28.90,11,3,11,0.35
2013-1-12,53,42,34,43,34,28,78,71,57,29.20,28.91,29,8,29,0.35
2013-1-13,34,30,27,28,22,19,78,71,68,29.21,29.07,23,2,23,0.02
2013-1-14,27,22,19,20,14,12,76,73,67,29.59,29.21,21,6,21,0.00
2013-1-15,27,22,14,18,14,7,76,71,64,29.60,29.29,21,6,21,0.00
2013-1-16,29,26,21,22,18,13,76,72,68,29.29,28.85,22,7,22,0.00
2013-1-17,21,15,13,13,8,6,76,75,71,29.47,29.20,19,5,19,0.00
2013-1-20,16,13,12,8,6,5,77,72,67,29.37,29.30,15,5,21,0.00
2013-1-21,12,8,1,6,2,-4,78,77,76,29.31,29.16,13,2,13,0.00
2013-1-22,7,4,1,1,-1,-4,78,78,77,29.45,29.26,10,2,10,0.00
2013-1-23,14,10,7,8,4,1,77,77,76,29.46,29.25,13,2,13,0.00
2013-1-24,11,3,-9,7,-2,-14,84,81,77,29.83,29.46,8,1,8,0.00
2013-1-25,20,13,3,15,9,-1,84,83,82,29.70,29.20,11,2,11,0.00
2013-1-26,25,16,8,20,12,4,84,83,80,29.64,29.26,4,1,4,0.00
2013-1-27,30,24,9,25,19,5,84,81,77,29.64,29.30,10,2,10,0.00
2013-1-28,32,30,27,24,22,20,77,72,70,29.29,29.06,8,2,8,0.00
2013-1-29,50,38,29,39,28,21,70,68,66,29.23,28.70,11,3,11,0.73
2013-1-30,36,31,18,27,23,11,72,70,68,28.71,28.36,8,1,8,0.33
2013-1-31,19,16,14,12,9,8,76,75,72,29.07,28.45,0,0,0,0.00
2013-2-1,16,14,10,10,8,4,78,76,75,29.34,29.07,0,0,0,0.00
2013-2-2,16,10,4,10,5,-1,80,78,76,29.31,29.24,0,0,0,0.00
2013-2-3,18,12,6,11,7,1,79,77,75,29.25,29.03,0,0,0,0.00
2013-2-4,17,13,9,12,9,6,85,82,77,29.22,29.14,0,0,0,0.00
2013-2-5,22,14,-2,17,9,-5,85,83,71,29.23,28.91,0,0,0,0.00
2013-2-6,27,19,10,18,12,5,84,74,59,29.47,29.23,0,0,0,0.00
2013-2-7,27,24,20,23,19,15,83,81,79,29.45,29.32,0,0,0,0.00
2013-2-8,25,18,0,19,12,-4,85,80,70,29.65,29.33,0,0,0,0.00
2013-2-9,30,12,-10,22,5,-15,84,75,59,29.66,29.44,8,1,8,0.00
2013-2-10,38,29,18,32,22,12,82,75,62,29.46,28.77,16,4,16,0.38
2013-2-11,39,34,26,33,27,19,83,78,74,29.02,28.60,25,4,25,0.38
2013-2-12,27,25,24,21,19,-100,84,78,75,29.20,28.30,8,-3,8,0.00
2013-2-13,38,31,25,30,25,20,84,80,71,29.08,28.12,14,4,14,0.06
2013-2-14,35,31,23,29,25,17,83,80,75,29.09,28.84,17,2,17,0.06
2013-2-15,23,20,15,18,14,8,84,80,69,29.36,29.08,15,4,15,0.00
2013-2-16,23,13,-1,13,6,-6,84,76,61,29.39,29.29,16,1,16,0.00
2013-2-17,20,11,-1,12,5,-6,83,76,67,29.43,29.35,9,1,9,0.00
2013-2-18,39,29,13,31,19,8,82,67,56,29.35,28.69,15,5,15,0.08
2013-2-19,40,27,14,34,21,10,83,79,72,29.07,28.43,28,10,28,0.06
2013-2-20,17,13,10,13,9,6,84,84,83,29.54,29.07,26,6,26,0.00
2013-2-21,22,15,11,17,10,7,84,81,67,29.67,29.53,16,4,16,0.00
2013-2-22,29,26,18,22,20,14,84,79,74,29.56,29.06,19,6,19,0.00
2013-2-23,33,28,25,28,22,18,83,78,73,29.10,29.00,11,2,11,0.05
2013-2-24,36,28,14,31,22,10,83,81,77,29.40,29.07,13,1,13,0.14
2013-2-25,37,31,28,28,25,23,83,77,63,29.44,29.38,9,1,9,0.00
2013-2-26,35,31,24,26,24,18,82,75,67,29.42,29.16,28,6,28,0.00
2013-2-27,33,32,30,28,25,23,82,76,69,29.02,28.90,23,8,23,0.00
2013-2-28,32,29,22,25,21,14,81,71,69,29.34,28.95,18,4,18,0.00
2013-3-1,30,20,15,17,12,7,79,70,58,29.47,29.34,17,3,17,0.00
2013-3-2,27,18,13,16,10,6,77,72,62,29.50,29.34,11,3,11,0.00
2013-3-3,26,14,-2,16,7,-7,81,74,64,29.34,29.28,14,2,14,0.00
2013-3-4,29,13,-4,16,5,-9,81,70,52,29.41,29.33,13,1,13,0.00
2013-3-5,31,18,1,22,12,-4,82,76,65,29.41,29.26,19,5,19,0.00
2013-3-6,39,32,26,30,26,20,82,78,69,29.51,29.31,16,4,16,0.00
2013-3-7,29,26,24,22,20,18,83,77,69,29.69,29.51,11,2,11,0.00
2013-3-8,40,26,13,30,20,9,83,78,63,29.76,29.63,12,1,12,0.00
2013-3-9,45,32,15,31,22,11,83,70,49,29.63,29.22,11,3,11,0.22
2013-3-10,41,38,36,33,31,27,81,75,70,29.22,29.05,8,3,8,0.30
2013-3-12,23,23,22,17,16,15,76,75,75,29.10,29.07,0,0,0,0.00
2013-3-13,29,23,17,22,16,12,83,75,62,29.44,29.08,14,2,14,0.00
2013-3-14,35,28,17,23,20,12,82,72,55,29.48,29.22,13,3,13,0.00
2013-3-15,32,29,20,25,20,11,81,70,62,29.23,29.11,17,6,17,0.00
2013-3-16,26,20,14,16,12,6,82,72,56,29.27,29.16,15,4,15,0.00
2013-3-17,27,19,13,16,8,5,82,63,46,29.58,29.27,19,5,19,0.00
2013-3-18,40,26,14,25,17,6,80,69,46,29.47,28.75,21,6,21,0.03
2013-3-19,30,25,22,23,19,16,79,77,74,29.07,28.70,25,8,25,0.03
2013-3-20,26,22,20,19,17,15,83,78,66,29.12,28.87,19,6,19,0.00
2013-3-21,27,25,23,22,19,18,83,78,76,29.19,29.05,17,5,21,0.00
2013-3-22,33,28,24,26,22,18,82,78,69,29.31,29.16,16,4,16,0.00
2013-3-23,38,31,26,27,24,21,82,75,59,29.37,29.30,11,2,11,0.00
2013-3-24,35,30,22,26,21,16,82,70,54,29.35,29.10,17,4,17,0.00
2013-3-25,38,33,25,28,25,17,80,72,62,29.26,29.08,18,5,18,0.00
2013-3-26,42,35,31,32,27,24,82,73,51,29.39,29.26,15,3,15,0.00
2013-3-27,43,34,26,30,27,21,82,75,58,29.48,29.36,16,4,16,0.00
2013-3-28,46,36,27,31,26,20,82,68,48,29.54,29.46,18,2,18,0.00
2013-3-29,47,33,19,29,21,14,82,64,39,29.55,29.48,11,2,11,0.00
2013-3-30,51,37,20,35,22,15,82,59,33,29.48,29.06,18,3,18,0.06
2013-3-31,42,37,27,35,29,19,80,73,67,29.06,28.83,27,6,27,0.16
2013-4-1,29,25,22,22,17,11,81,71,55,29.32,29.00,24,8,24,0.03
2013-4-2,32,27,24,20,16,12,72,62,52,29.50,29.29,18,6,18,0.00
2013-4-3,36,28,21,19,16,11,75,59,46,29.69,29.49,15,4,15,0.00
2013-4-4,48,35,25,32,23,13,80,62,44,29.52,29.16,24,6,24,0.03
2013-4-5,37,31,27,28,21,17,80,67,49,29.50,29.28,13,2,13,0.00
2013-4-6,43,32,24,31,25,18,80,74,60,29.48,28.85,20,4,20,0.06
2013-4-7,47,38,28,41,30,23,80,74,60,29.38,28.68,17,5,17,0.13
2013-4-8,41,34,26,34,28,20,81,78,75,29.42,29.05,14,3,14,0.25
2013-4-9,43,37,33,37,30,26,80,75,71,29.38,29.26,10,1,10,0.16
2013-4-10,40,36,32,32,29,24,81,75,64,29.40,29.32,18,6,18,0.16
2013-4-11,35,31,29,25,23,19,80,72,61,29.39,29.09,33,13,33,0.00
2013-4-12,34,31,27,26,23,20,77,74,70,29.09,28.86,30,8,30,0.19
2013-4-13,36,33,30,30,26,22,81,75,68,29.17,28.95,20,4,20,0.14
2013-4-14,45,35,22,30,26,17,81,69,48,29.33,29.17,16,4,16,0.00
2013-4-15,51,44,36,43,35,26,79,71,62,29.19,29.00,15,5,15,0.22
2013-4-16,50,40,31,34,31,26,81,69,51,29.60,29.14,18,4,18,0.00
2013-4-17,49,37,25,34,28,20,81,71,53,29.66,29.36,20,5,20,0.00
2013-4-18,47,42,36,38,33,30,80,72,63,29.37,28.65,17,4,17,0.46
2013-4-19,55,39,27,42,29,19,74,68,60,28.91,28.48,34,11,34,0.46
2013-4-20,33,28,23,25,19,15,76,68,58,29.70,28.91,22,5,22,0.11
2013-4-21,49,33,17,27,18,11,78,57,31,29.86,29.62,13,3,13,0.00
2013-4-22,63,47,35,37,31,26,76,55,35,29.62,29.39,14,4,14,0.00
2013-4-23,56,44,32,47,32,22,77,65,52,29.39,29.08,11,4,12,0.24
2013-4-24,46,36,29,31,25,22,75,64,46,29.26,29.15,15,3,15,0.24
2013-4-25,47,38,29,33,28,22,77,70,51,29.54,29.17,25,5,25,0.00
2013-4-26,62,45,30,42,32,23,78,62,40,29.60,29.42,21,4,21,0.00
2013-4-27,70,56,43,51,45,36,77,67,49,29.48,29.37,14,4,14,0.08
2013-4-28,75,56,36,48,39,28,78,56,31,29.37,29.08,15,2,15,0.00
2013-4-29,66,55,45,54,43,34,76,66,58,29.16,29.10,10,1,10,0.08
2013-4-30,74,62,51,60,50,38,73,63,59,29.18,29.05,20,5,20,0.16
2013-5-1,76,64,50,63,54,38,76,68,56,29.55,29.17,16,4,16,0.00
2013-5-2,67,50,38,50,40,32,77,68,51,29.57,29.40,13,2,13,0.00
2013-5-3,72,56,37,53,43,30,77,63,44,29.48,29.32,17,3,17,0.00
2013-5-4,66,59,53,51,44,41,70,59,50,29.40,29.37,6,2,6,0.00
2013-5-5,62,60,59,37,37,36,43,41,40,29.36,29.35,2,0,5,0.00
2013-5-6,76,60,43,46,40,35,75,49,28,29.38,29.27,15,2,15,0.00
2013-5-7,81,60,42,46,39,33,74,49,26,29.39,29.28,13,2,13,0.00
2013-5-8,80,64,46,49,41,34,74,46,28,29.32,29.25,8,1,8,0.00
2013-5-9,77,58,44,51,43,37,76,60,40,29.31,29.21,14,2,14,0.03
2013-5-10,48,41,37,40,32,28,76,70,66,29.31,29.21,21,5,21,0.70
2013-5-11,50,38,33,40,29,23,76,68,62,29.21,28.97,13,2,13,0.22
2013-5-12,39,36,32,29,26,23,73,67,60,29.32,28.95,26,6,26,0.08
2013-5-13,51,41,29,32,26,22,77,58,36,29.42,29.30,13,2,13,0.00
2013-5-14,72,55,40,47,38,27,76,54,40,29.30,28.91,13,3,13,0.03
2013-5-15,75,61,50,50,46,40,75,59,35,29.07,28.73,17,4,17,0.00
2013-5-16,64,53,41,44,40,34,77,62,45,29.37,29.03,14,2,14,0.00
2013-5-17,70,54,37,48,40,29,76,60,42,29.47,29.36,11,2,11,0.00
2013-5-18,57,52,48,48,42,38,75,68,58,29.47,29.44,7,2,7,0.00
2013-5-19,84,76,68,64,60,55,64,56,50,29.24,29.11,11,3,11,0.00
2013-5-20,80,69,61,67,56,47,74,64,54,29.14,29.14,12,3,12,0.57
2013-5-21,64,59,56,48,44,41,59,57,55,29.14,29.14,9,2,9,0.17
2013-5-27,74,66,58,39,36,32,41,32,26,29.14,29.14,11,4,11,0.00
2013-5-28,58,55,50,48,42,35,75,62,42,29.14,29.14,9,2,9,0.76
2013-5-29,69,62,57,56,48,42,64,60,56,29.14,29.14,8,1,8,0.00
2013-5-30,91,72,56,72,58,41,73,62,48,29.14,29.14,19,2,19,0.19
2013-5-31,84,71,64,66,56,48,74,60,48,29.14,29.14,17,2,17,0.32
2013-6-1,77,66,58,66,52,43,75,60,53,29.14,29.14,12,1,12,0.14
2013-6-2,60,47,37,45,36,28,70,64,57,29.14,29.14,15,3,15,0.13
2013-6-3,61,48,35,47,36,25,76,63,44,29.14,29.14,27,2,27,0.00
2013-6-4,64,51,37,46,36,28,74,58,43,29.14,29.14,5,0,8,0.00
2013-6-5,59,54,49,50,45,38,76,73,64,29.14,29.14,10,2,10,0.00
2013-6-6,66,55,51,48,42,36,68,61,44,29.14,29.14,15,4,15,0.00
2013-6-7,64,56,50,44,41,39,68,58,48,29.14,29.14,3,0,3,0.00
2013-6-8,72,58,45,55,45,37,75,64,41,29.14,29.14,7,1,7,0.00
2013-6-9,75,62,44,58,49,36,76,62,49,29.14,29.14,10,2,10,0.00
2013-6-10,71,63,58,62,52,44,74,69,59,29.14,29.14,11,3,11,0.00
2013-6-11,77,64,57,65,50,42,72,62,55,29.14,29.14,7,1,7,0.00
2013-6-12,81,66,54,62,49,40,72,55,43,29.14,29.14,8,1,8,0.00
2013-6-13,72,61,50,60,51,39,74,70,61,29.14,29.14,17,2,17,0.00
2013-6-14,74,59,45,49,43,35,75,58,30,29.14,29.14,8,1,8,0.00
2013-6-15,77,60,45,59,48,37,75,65,47,29.14,29.14,9,1,9,0.00
2013-6-16,79,63,55,64,48,40,74,59,53,29.14,29.14,11,1,11,0.38
2013-6-17,69,59,52,57,46,37,68,62,55,29.14,29.14,17,2,17,0.00
2013-6-18,71,57,44,52,41,31,71,56,41,29.14,29.14,11,2,11,0.00
2013-6-19,74,58,43,52,43,33,75,59,40,29.14,29.14,8,1,8,0.00
2013-6-20,82,65,48,59,50,40,75,61,44,29.14,29.14,9,1,9,0.00
2013-6-21,84,70,57,68,58,46,73,67,55,29.14,29.14,9,2,9,0.00
2013-6-22,78,66,60,65,52,43,73,60,52,29.14,29.14,10,1,10,0.03
2013-6-23,88,78,63,72,64,47,73,63,55,29.14,29.14,5,0,5,0.00
2013-6-24,85,77,70,72,66,55,73,69,60,29.14,29.14,0,0,0,0.00
2013-6-25,81,72,63,69,61,51,73,67,57,29.14,29.14,0,0,0,0.00
2013-6-26,89,72,58,70,57,43,73,59,49,29.14,29.14,0,0,0,0.00
2013-6-27,84,70,62,68,56,47,73,61,53,29.14,29.14,0,0,0,0.00
2013-6-28,76,66,58,62,51,42,66,59,52,29.14,29.14,0,0,0,0.00
2013-6-29,75,66,59,63,53,44,74,62,54,29.14,29.14,0,0,0,0.00
2013-6-30,80,68,58,55,51,49,73,56,36,29.14,29.14,0,0,0,0.00
2013-7-1,74,63,51,58,49,40,75,60,39,29.14,29.14,0,0,0,0.00
2013-7-2,72,60,46,54,45,38,75,59,38,29.14,29.14,0,0,0,0.00
2013-7-3,79,66,55,60,53,47,74,63,49,29.14,29.14,0,0,0,0.00
2013-7-4,79,68,61,66,54,44,73,62,52,29.14,29.14,0,0,0,0.00
2013-7-5,88,74,62,68,58,45,72,57,42,29.14,29.14,0,0,0,0.00
2013-7-6,90,75,65,67,61,55,73,62,43,29.14,29.14,0,0,0,0.00
2013-7-7,85,71,61,71,60,47,73,66,57,29.14,29.14,0,0,0,0.00
2013-7-8,74,69,65,58,52,47,62,54,50,29.14,29.14,0,0,0,0.00
2013-7-9,84,72,66,72,56,48,69,57,50,29.14,29.14,0,0,0,0.00
2013-7-10,74,68,58,62,53,43,74,60,49,29.14,29.14,0,0,0,0.00
2013-7-11,78,64,53,60,50,38,74,60,51,29.14,29.14,0,0,0,0.00
2013-7-12,84,66,51,62,50,37,73,57,41,29.14,29.14,0,0,0,0.00
2013-7-13,84,73,60,65,59,48,74,62,47,29.14,29.14,0,0,0,0.00
2013-7-14,88,79,60,69,63,44,73,59,51,29.14,29.14,0,0,0,0.00
2013-7-15,92,77,63,71,61,48,73,59,46,29.14,29.14,0,0,0,0.00
2013-7-16,94,79,65,75,64,48,72,60,49,29.14,29.14,0,0,0,0.00
2013-7-17,94,83,73,75,68,57,71,61,49,29.14,29.14,0,0,0,0.00
2013-7-18,86,78,71,73,62,53,71,58,49,29.14,29.14,0,0,0,0.00
2013-7-19,86,78,65,72,66,51,73,66,47,29.14,29.14,0,0,0,0.00
2013-7-20,72,65,53,57,49,43,74,57,46,29.14,29.14,0,0,0,0.00
2013-7-21,77,61,45,60,49,33,74,64,50,29.14,29.14,0,0,0,0.00
2013-7-22,88,74,61,70,61,49,73,65,52,29.14,29.14,0,0,0,0.00
2013-7-23,77,63,54,66,50,46,73,64,52,29.14,29.14,0,0,0,0.00
2013-7-24,73,59,45,55,46,32,74,63,50,29.14,29.14,0,0,0,0.00
2013-7-25,80,64,50,60,49,35,73,59,46,29.14,29.14,0,0,0,0.00
2013-7-26,79,65,57,66,50,42,73,61,52,29.14,29.14,0,0,0,0.00
2013-7-27,62,59,56,49,44,40,64,57,52,29.14,29.14,0,0,0,0.00
2013-7-28,67,59,54,55,46,40,74,63,57,29.14,29.14,0,0,0,0.00
2013-7-29,70,60,53,59,46,38,74,61,53,29.14,29.14,0,0,0,0.00
2013-7-30,76,62,52,63,48,37,74,60,52,29.14,29.14,0,0,0,0.00
2013-7-31,78,67,57,65,54,42,73,64,54,29.14,29.14,0,0,0,0.00
2013-8-1,75,64,56,61,49,40,74,58,50,29.14,29.14,0,0,0,0.00
2013-8-2,75,64,55,61,49,38,74,59,50,29.14,29.14,0,0,0,0.00
2013-8-3,68,61,53,56,48,38,75,64,52,29.14,29.14,0,0,0,0.00
2013-8-4,72,62,52,54,49,40,75,63,48,29.14,29.14,0,0,0,0.00
2013-8-5,74,60,48,55,47,34,74,64,46,29.14,29.14,0,0,0,0.00
2013-8-6,77,68,60,67,58,48,74,70,54,29.14,29.14,0,0,0,0.00
2013-8-7,75,67,57,61,52,44,66,58,50,29.14,29.14,0,0,0,0.00
2013-8-8,75,61,50,59,47,35,74,58,50,29.14,29.14,0,0,0,0.00
2013-8-9,76,63,51,62,50,37,74,63,53,29.14,29.14,0,0,0,0.00
2013-8-10,74,60,47,59,47,35,75,64,49,29.14,29.14,0,0,0,0.00
2013-8-11,77,64,52,60,49,38,74,60,51,29.14,29.14,0,0,0,0.00
2013-8-12,78,64,57,64,51,41,75,62,51,29.14,29.14,0,0,0,0.00
2013-8-13,63,56,51,49,47,43,75,71,57,29.14,29.14,0,0,0,0.00
2013-8-14,69,58,48,53,46,34,75,64,53,29.14,29.14,0,0,0,0.00
2013-8-15,76,62,50,58,47,36,74,60,43,29.14,29.14,0,0,0,0.00
2013-8-16,81,64,49,61,49,35,74,60,42,29.14,29.14,0,0,0,0.00
2013-8-17,84,65,50,60,50,36,73,58,37,29.14,29.14,0,0,0,0.00
2013-8-18,84,67,53,63,53,44,73,63,39,29.14,29.14,0,0,0,0.00
2013-8-19,82,69,55,65,56,44,72,63,51,29.14,29.14,0,0,0,0.00
2013-8-20,86,75,66,69,62,56,73,66,50,29.14,29.14,0,0,0,0.00
2013-8-21,89,78,70,72,66,61,73,67,53,29.14,29.14,0,0,0,0.00
2013-8-22,80,70,59,64,54,46,74,58,43,29.14,29.14,0,0,0,0.00
2013-8-23,79,64,50,61,50,36,74,60,48,29.14,29.14,0,0,0,0.00
2013-8-24,82,67,53,64,55,42,74,65,47,29.14,29.14,0,0,0,0.00
2013-8-25,90,76,59,72,62,46,72,64,53,29.14,29.14,0,0,0,0.00
2013-8-26,86,76,66,71,63,50,72,63,48,29.14,29.14,0,0,0,0.00
2013-8-27,76,70,65,58,50,46,55,51,48,29.14,29.14,0,0,0,0.00
2013-8-28,87,72,61,73,56,43,73,57,47,29.14,29.14,0,0,0,0.00
2013-8-29,88,73,60,73,57,42,73,57,47,29.14,29.14,0,0,0,0.00
2013-8-30,75,71,66,64,55,48,71,57,47,29.14,29.14,0,0,0,0.00
2013-8-31,78,68,61,66,54,43,74,60,50,29.14,29.14,0,0,0,0.00
2013-9-1,75,67,61,61,51,43,63,56,49,29.14,29.14,0,0,0,0.00
2013-9-2,62,56,54,49,44,40,67,62,55,29.14,29.14,0,0,0,0.00
2013-9-3,72,62,52,57,49,38,75,64,50,29.44,29.14,0,0,0,0.00
2013-9-4,69,61,50,57,47,41,75,61,50,29.43,29.18,0,0,0,0.00
2013-9-5,66,54,44,48,42,32,75,63,49,29.57,29.42,0,0,0,0.00
2013-9-6,75,61,46,61,49,34,73,66,55,29.50,29.23,0,0,0,0.00
2013-9-7,78,69,62,63,53,47,71,57,47,29.27,29.12,0,0,0,0.00
2013-9-8,71,62,52,57,49,39,75,64,53,29.42,29.27,0,0,0,0.00
2013-9-9,75,65,54,66,55,42,74,70,50,29.31,28.98,0,0,0,0.00
2013-9-10,88,77,67,74,61,47,72,57,46,29.23,28.98,0,0,0,0.00
2013-9-11,78,69,64,65,52,45,64,55,48,29.25,29.15,0,0,0,0.00
2013-9-12,68,60,51,53,48,42,75,64,53,29.31,29.14,0,0,0,0.00
2013-9-13,59,50,43,45,40,35,76,68,55,29.43,29.31,0,0,0,0.00
2013-9-14,66,52,39,54,42,28,75,67,56,29.40,29.23,0,0,0,0.00
2013-9-15,59,56,50,49,42,36,75,61,52,29.44,29.23,0,0,0,0.00
2013-9-16,60,49,42,45,37,32,70,65,56,29.67,29.44,0,0,0,0.00
2013-9-17,68,51,38,50,39,28,75,64,45,29.65,29.42,0,0,0,0.00
2013-9-18,73,60,44,59,49,34,73,67,60,29.42,29.19,0,0,0,0.00
2013-9-19,81,71,63,67,57,45,74,62,50,29.21,29.03,0,0,0,0.00
2013-9-20,69,66,58,51,47,41,55,50,48,29.03,28.91,0,0,0,0.00
2013-9-21,58,53,47,46,41,36,72,64,53,29.16,28.97,0,0,0,0.00
2013-9-22,52,48,41,42,39,33,74,72,67,29.36,29.15,0,0,0,0.00
2013-9-23,66,48,36,49,37,25,75,65,52,29.45,29.35,0,0,0,0.00
2013-9-24,68,52,39,54,40,27,75,64,54,29.42,29.27,0,0,0,0.00
2013-9-25,72,54,40,52,40,28,75,60,41,29.31,29.23,0,0,0,0.00
2013-9-26,73,54,39,55,40,27,75,60,41,29.39,29.28,0,0,0,0.00
2013-9-27,80,59,43,59,45,30,74,60,43,29.47,29.38,0,0,0,0.00
2013-9-28,76,65,55,58,52,41,74,64,51,29.41,29.10,0,0,0,0.00
2013-9-29,70,58,46,57,45,35,74,62,52,29.27,29.09,0,0,0,0.00
2013-9-30,69,54,40,54,41,28,74,62,46,29.26,29.11,0,0,0,0.00
2013-10-1,78,66,56,64,55,48,74,70,58,29.14,28.97,0,0,0,0.00
2013-10-2,71,60,50,55,46,39,74,61,38,29.34,29.10,0,0,0,0.00
2013-10-3,66,55,46,56,43,37,74,65,51,29.33,29.16,0,0,0,0.00
2013-10-4,57,56,55,40,39,38,55,53,52,29.36,29.17,0,0,0,0.00
2013-10-5,56,55,53,41,39,37,59,55,52,29.35,29.13,0,0,0,0.00
2013-10-6,69,58,51,49,40,35,54,52,49,29.13,28.87,0,0,0,0.00
2013-10-7,56,51,45,46,39,32,71,62,54,29.30,28.80,0,0,0,0.00
2013-10-8,70,52,40,53,41,27,76,65,53,29.45,29.30,0,0,0,0.00
2013-10-9,74,60,50,56,50,39,77,69,52,29.49,29.41,0,0,0,0.00
2013-10-10,72,54,43,55,41,30,76,62,45,29.49,29.35,0,0,0,0.00
2013-10-11,71,56,41,54,42,29,76,60,43,29.42,29.30,0,0,0,0.00
2013-10-12,78,63,46,57,49,39,76,61,43,29.31,29.15,0,0,0,0.00
2013-10-13,61,53,42,48,42,33,70,67,55,29.64,29.28,0,0,0,0.00
2013-10-14,58,45,35,45,35,26,77,66,54,29.69,29.54,0,0,0,0.00
2013-10-15,60,50,37,50,38,28,77,66,53,29.54,28.95,0,0,0,0.00
2013-10-16,57,52,48,41,38,34,68,59,52,29.08,28.91,0,0,0,0.00
2013-10-17,52,47,41,42,36,30,70,66,60,29.10,28.98,0,0,0,0.00
2013-10-18,53,46,40,41,32,26,65,58,54,29.05,28.97,0,0,0,0.00
2013-10-19,50,43,36,40,31,26,76,62,56,29.05,28.90,0,0,0,0.00
2013-10-20,51,43,36,40,32,24,77,64,57,29.05,28.92,0,0,0,0.00
2013-10-21,48,42,33,34,30,22,70,62,55,29.00,28.85,0,0,0,0.00
2013-10-22,46,38,32,37,28,21,72,67,59,29.11,28.88,0,0,0,0.00
2013-10-23,44,38,32,34,28,23,72,69,63,29.10,29.04,0,0,0,0.00
2013-10-24,44,39,36,37,31,28,77,72,67,29.35,29.08,0,0,0,0.00
2013-10-25,44,40,34,35,31,25,76,70,62,29.46,29.04,0,0,0,0.00
2013-10-26,46,42,39,38,34,29,76,71,62,29.18,28.80,0,0,0,0.00
2013-10-27,46,41,34,38,32,24,77,70,61,29.21,29.08,0,0,0,0.00
2013-10-28,45,36,26,37,27,19,76,70,54,29.72,29.21,0,0,0,0.00
2013-10-29,40,31,23,30,24,15,78,73,63,29.73,29.46,0,0,0,0.00
2013-10-30,42,38,36,32,31,30,77,76,69,29.47,29.38,0,0,0,0.00
2013-11-15,52,45,36,40,36,30,78,70,60,29.18,29.09,15,3,15,0.00
2013-11-16,55,46,37,47,39,30,78,76,61,29.21,28.78,17,5,17,0.02
2013-11-17,60,54,44,47,39,31,63,57,53,28.79,28.24,25,6,25,2.01
2013-11-18,43,35,30,34,27,21,76,70,62,29.34,28.47,29,10,29,0.03
2013-11-19,34,30,27,25,22,20,76,72,66,29.60,29.34,15,3,17,0.00
2013-11-20,44,36,31,29,26,23,74,67,51,29.58,29.43,13,5,13,0.00
2013-11-21,42,39,36,35,31,29,77,73,67,29.45,29.39,7,1,7,0.00
2013-11-22,39,32,30,29,23,19,76,69,64,29.58,29.40,13,1,13,0.06
2013-11-23,32,20,16,25,13,8,78,73,64,29.72,29.44,28,4,28,0.00
2013-11-24,23,19,17,15,12,8,78,73,64,29.75,29.37,18,5,18,0.00
2013-11-25,34,30,23,26,21,15,77,69,62,29.37,29.07,28,10,28,0.00
2013-11-26,34,29,22,25,20,14,75,70,66,29.28,29.12,18,4,18,0.00
2013-11-27,23,20,12,16,12,5,78,71,62,29.42,29.23,22,4,22,0.00
2013-11-28,23,16,8,18,11,3,82,81,78,29.67,29.40,10,2,10,0.00
2013-11-29,30,19,4,22,14,0,83,78,69,29.84,29.67,10,2,10,0.00
2013-11-30,36,31,25,30,25,18,80,77,73,29.70,29.26,11,-3,11,0.06
2013-12-1,34,32,29,28,25,23,80,77,71,29.35,29.25,13,-352,13,0.00
2013-12-2,32,30,25,25,23,18,81,75,67,29.27,29.14,9,2,9,0.00
2013-12-3,30,26,20,24,20,15,82,77,63,29.21,29.14,14,4,15,0.00
2013-12-4,45,34,30,32,22,18,63,61,60,29.15,28.66,22,8,22,0.19
2013-12-5,49,33,21,38,24,14,73,69,55,29.32,28.65,31,12,31,0.00
2013-12-6,21,20,19,14,13,12,74,72,67,29.56,29.31,34,6,34,29.94
2013-12-7,19,18,17,12,10,8,75,70,66,29.75,29.56,28,7,28,0.00
2013-12-8,20,17,16,12,10,9,75,73,69,29.75,29.28,14,3,14,0.00
2013-12-9,27,20,12,17,12,5,73,69,64,29.28,28.98,27,6,31,0.00
2013-12-10,16,13,9,8,6,2,75,73,71,29.25,28.97,17,5,17,0.00
2013-12-11,14,12,11,7,5,4,74,73,72,29.54,29.25,12,3,12,0.00
2013-12-12,18,14,10,10,7,4,75,72,69,29.53,29.25,16,4,16,0.00
2013-12-13,18,12,1,10,5,-4,79,74,70,29.64,29.26,20,4,20,0.00
2013-12-14,18,13,1,12,7,-4,78,75,72,29.64,29.12,18,6,18,0.00
2013-12-15,20,17,10,12,9,4,76,72,69,29.22,28.92,21,3,21,0.00
2013-12-16,14,5,-13,10,0,-18,84,82,75,29.38,29.16,13,2,13,0.00
2013-12-17,26,20,14,18,14,10,83,79,74,29.16,29.01,10,2,10,0.00
2013-12-18,26,22,18,20,17,14,84,81,74,29.23,28.97,18,4,18,0.00
2013-12-19,30,26,20,25,21,15,84,82,80,29.28,28.94,13,3,13,0.00
2013-12-20,22,20,17,17,15,13,84,81,79,29.28,29.08,15,3,15,0.00
2013-12-21,25,23,22,20,18,16,82,80,77,29.22,29.05,19,3,19,0.00
2013-12-22,24,19,13,20,14,9,84,82,79,29.29,29.01,27,7,27,0.00
2013-12-23,14,11,6,10,7,2,85,84,83,29.58,29.29,11,2,11,0.00
2013-12-24,11,-3,-16,7,-7,-20,85,83,81,29.70,29.57,5,0,7,0.00
2013-12-25,21,17,-5,16,12,-8,85,81,77,29.65,29.25,18,5,18,0.00
2013-12-26,22,20,19,17,15,14,81,80,78,29.43,29.21,18,2,18,0.00
2013-12-27,36,25,18,31,20,13,84,81,79,29.46,29.10,17,4,17,0.00
2013-12-28,42,34,25,34,29,20,83,81,72,29.22,28.97,14,2,14,0.11
2013-12-29,33,19,10,26,14,3,84,79,73,29.29,28.93,0,0,0,0.00
2013-12-30,14,11,8,10,6,2,84,81,69,29.42,29.27,0,0,0,0.00
2013-12-31,11,10,8,7,6,4,84,84,84,29.52,29.20,0,0,0,0.00
2014-1-1,9,6,1,5,1,-4,84,81,75,29.68,29.52,0,0,0,0.00
2014-1-2,8,1,-14,2,-4,-19,83,79,72,29.62,29.51,0,0,0,0.00